Cincinnati, OH

6:47 AM EDT on September 20, 2019 (GMT -0400)
Cincinnati Municipal-Lunken

Weather History for KLUK - August, 2019

Change the Weather History Date:

Thursday, August 22, 2019

  Actual Average Record
Temperature  
Mean Temperature 75 °F -  
Max Temperature 81 °F 84 °F 100 °F (2007)
Min Temperature 69 °F 63 °F 50 °F (1950)
Cooling Degree Days 10    
Growing Degree Days 25 (Base 50)    
Moisture  
Dew Point 70 °F    
Average Humidity 86    
Maximum Humidity 100    
Minimum Humidity 67    
Precipitation  
Precipitation 0.18 in - - ()
Sea Level Pressure  
Sea Level Pressure 29.98 in    
Wind  
Wind Speed 4 mph ()    
Max Wind Speed 17 mph    
Max Gust Speed 26 mph    
Visibility 9.2 miles    
Events Rain , Thunderstorm    
Averages and records for this station are not official NWS values.
T = Trace of Precipitation, MM = Missing Value Source: Averaged Metar Reports

Daily Weather History Graph

Daily Weather History Graph

Search for Another Location

Airport or City:

Astronomy

Aug. 22, 2019 Rise Set
Actual Time 6:57 AM EDT 8:23 PM EDT
Civil Twilight 6:29 AM EDT 8:51 PM EDT
Nautical Twilight 5:55 AM EDT 9:24 PM EDT
Astronomical Twilight 5:19 AM EDT 10:00 PM EDT
Moon No Moon Rise 1:28 PM EDT (8/22)
Length of Visible Light 14h 22m
Length of Day
13h 26m
Waning Gibbous, 60% of the Moon is Illuminated
Aug 22
Waning Gibbous
Aug 23
Last Quarter
Aug 30
New
Sep 5
First Quarter
Sep 14
Full

Hourly Weather History & Observations

Time (EDT) Temp. Heat Index Dew Point Humidity Pressure Visibility Wind Dir Wind Speed Gust Speed Precip Events Conditions
12:53 AM 69.1 °F - 69.1 °F 100% 29.96 in 9.0 mi Calm Calm - N/A   Clear
1:53 AM 70.0 °F - 69.1 °F 97% 29.96 in 8.0 mi Calm Calm - N/A   Scattered Clouds
2:53 AM 70.0 °F - 69.1 °F 97% 29.95 in 8.0 mi NNE 4.6 mph - N/A   Clear
3:53 AM 71.1 °F - 69.1 °F 93% 29.96 in 9.0 mi NNE 3.5 mph - N/A   Scattered Clouds
4:53 AM 71.1 °F - 70.0 °F 96% 29.95 in 8.0 mi Calm Calm - N/A   Mostly Cloudy
5:53 AM 71.1 °F - 70.0 °F 96% 29.99 in 8.0 mi SW 9.2 mph - 0.00 in   Mostly Cloudy
6:13 AM 73.9 °F - 70.0 °F 87% 30.02 in 10.0 mi West 17.3 mph 26.5 mph 0.00 in Rain Light Rain
6:21 AM 73.9 °F - 70.0 °F 87% 30.03 in 8.0 mi West 13.8 mph 26.5 mph 0.01 in Rain , Thunderstorm Thunderstorms and Rain
6:53 AM 72.0 °F - 70.0 °F 93% 30.02 in 4.0 mi WNW 3.5 mph - 0.11 in Rain , Thunderstorm Thunderstorms and Rain
7:53 AM 71.1 °F - 69.1 °F 93% 29.94 in 7.0 mi NE 5.8 mph - 0.06 in   Partly Cloudy
8:53 AM 71.1 °F - 70.0 °F 96% 29.94 in 10.0 mi SW 4.6 mph - N/A   Partly Cloudy
9:49 AM 73.4 °F - 69.8 °F 88% 29.98 in 10.0 mi West 3.5 mph - N/A   Scattered Clouds
9:53 AM 73.0 °F - 70.0 °F 90% 29.98 in 10.0 mi West 5.8 mph - N/A   Scattered Clouds
10:03 AM 73.9 °F - 70.0 °F 87% 29.99 in 10.0 mi West 5.8 mph - N/A   Mostly Cloudy
10:53 AM 73.9 °F - 69.1 °F 85% 30.00 in 10.0 mi West 5.8 mph - N/A   Scattered Clouds
11:53 AM 75.9 °F - 69.1 °F 79% 30.00 in 10.0 mi SSW 8.1 mph - N/A   Scattered Clouds
12:53 PM 77.0 °F - 69.1 °F 76% 30.01 in 10.0 mi Variable 3.5 mph - N/A   Overcast
1:53 PM 79.0 °F - 69.1 °F 72% 30.00 in 10.0 mi WSW 5.8 mph - N/A   Mostly Cloudy
2:53 PM 78.1 °F - 69.1 °F 74% 29.99 in 10.0 mi WNW 6.9 mph - 0.01 in   Overcast
3:14 PM 78.1 °F - 71.1 °F 79% 29.99 in 8.0 mi West 5.8 mph - 0.00 in Rain Light Rain
3:53 PM 79.0 °F - 71.1 °F 77% 29.96 in 10.0 mi SSW 4.6 mph - 0.00 in   Mostly Cloudy
4:17 PM 80.1 °F 83.2 °F 70.0 °F 71% 29.97 in 10.0 mi NW 5.8 mph - N/A   Mostly Cloudy
4:53 PM 80.1 °F 82.9 °F 69.1 °F 69% 29.94 in 10.0 mi WSW 3.5 mph - N/A   Scattered Clouds
5:53 PM 81.0 °F 84.1 °F 69.1 °F 67% 29.95 in 10.0 mi West 5.8 mph - N/A   Mostly Cloudy
6:53 PM 79.0 °F - 69.1 °F 72% 29.96 in 10.0 mi North 5.8 mph - N/A   Mostly Cloudy
7:53 PM 77.0 °F - 71.1 °F 82% 29.96 in 10.0 mi Calm Calm - N/A   Overcast
8:53 PM 73.9 °F - 69.1 °F 85% 29.96 in 10.0 mi ENE 4.6 mph - N/A   Mostly Cloudy
9:53 PM 72.0 °F - 70.0 °F 93% 29.96 in 10.0 mi Calm Calm - N/A   Mostly Cloudy
10:53 PM 72.0 °F - 70.0 °F 93% 29.98 in 10.0 mi Calm Calm - 0.00 in   Mostly Cloudy
11:53 PM 72.0 °F - 71.1 °F 97% 29.99 in 10.0 mi Calm Calm - 0.00 in Rain Light Rain